Weather History for Burlington, NC

Change the Weather History Date:

Saturday, May 25, 2013

  Actual Average Record
Temperature  
Mean Temperature 60 °F -  
Max Temperature 75 °F 80 °F 95 °F (1953)
Min Temperature 46 °F 58 °F 40 °F (1967)
Degree Days  
Heating Degree Days 6    
Growing Degree Days 10 (Base 50)    
Moisture  
Dew Point 37 °F    
Average Humidity 47    
Maximum Humidity 77    
Minimum Humidity 26    
Precipitation  
Precipitation 0.00 in - - ()
Sea Level Pressure  
Sea Level Pressure 30.20 in    
Wind  
Wind Speed 6 mph (WNW)    
Max Wind Speed 13 mph    
Max Gust Speed 18 mph    
Visibility 10 miles    
Events      
Averages and records for this station are not official NWS values.
T = Trace of Precipitation, MM = Missing Value Source: NWS Daily Summary

Daily Weather History Graph

Daily Weather History Graph

Search for Another Location

Airport:

Trip Planner

Search our weather history database for the weather conditions in past years. The results will help you decide how hot, cold, wet, or windy it might be!

Date:

Astronomy

May. 25, 2013 Rise Set
Actual Time 6:05 AM EDT 8:24 PM EDT
Civil Twilight 5:36 AM EDT 8:54 PM EDT
Nautical Twilight 5:00 AM EDT 9:30 PM EDT
Astronomical Twilight 4:20 AM EDT 10:09 PM EDT
Moon 9:11 PM EDT (5/25) 6:29 AM EDT (5/25)
Length of Visible Light 15h 18m
Length of Day
14h 19m
Full, 100% of the Moon is Illuminated
May 25
Full
May 31
Last Quarter
Jun 8
New
Jun 16
First Quarter
Jun 23
Full

Hourly Weather History & Observations

Time (EDT) Temp. Dew Point Humidity Pressure Visibility Wind Dir Wind Speed Gust Speed Precip Events Conditions
12:54 AM 51.1 °F 36.0 °F 56% 30.19 in 10.0 mi WNW 5.8 mph - N/A   Clear
1:54 AM 48.0 °F 39.0 °F 71% 30.20 in 10.0 mi West 3.5 mph - N/A   Clear
2:54 AM 48.0 °F 37.9 °F 68% 30.20 in 10.0 mi West 4.6 mph - N/A   Clear
3:54 AM 48.0 °F 39.0 °F 71% 30.20 in 10.0 mi WNW 4.6 mph - N/A   Clear
4:54 AM 48.0 °F 37.0 °F 66% 30.22 in 10.0 mi NW 4.6 mph - N/A   Clear
5:54 AM 46.9 °F 37.0 °F 68% 30.23 in 10.0 mi NW 5.8 mph - N/A   Clear
6:54 AM 48.9 °F 37.0 °F 64% 30.24 in 10.0 mi NW 3.5 mph - N/A   Clear
7:54 AM 52.0 °F 37.0 °F 57% 30.25 in 10.0 mi North 6.9 mph - N/A   Clear
8:54 AM 55.0 °F 36.0 °F 49% 30.27 in 10.0 mi NW 6.9 mph - N/A   Clear
9:54 AM 59.0 °F 34.0 °F 39% 30.28 in 10.0 mi NW 6.9 mph - N/A   Clear
10:54 AM 61.0 °F 33.1 °F 35% 30.27 in 10.0 mi West 8.1 mph 17.3 mph N/A   Clear
11:54 AM 64.9 °F 34.0 °F 32% 30.26 in 10.0 mi West 10.4 mph - N/A   Clear
12:54 PM 68.0 °F 36.0 °F 31% 30.23 in 10.0 mi Variable 5.8 mph - N/A   Clear
1:54 PM 70.0 °F 36.0 °F 29% 30.21 in 10.0 mi West 12.7 mph 17.3 mph N/A   Clear
2:54 PM 72.0 °F 35.1 °F 26% 30.17 in 10.0 mi WNW 8.1 mph 16.1 mph N/A   Clear
3:54 PM 73.9 °F 37.9 °F 27% 30.16 in 10.0 mi WNW 11.5 mph 16.1 mph N/A   Clear
4:54 PM 73.9 °F 37.9 °F 27% 30.15 in 10.0 mi Variable 5.8 mph 18.4 mph N/A   Clear
5:54 PM 73.9 °F 37.9 °F 27% 30.13 in 10.0 mi West 9.2 mph - N/A   Clear
6:54 PM 72.0 °F 37.9 °F 29% 30.14 in 10.0 mi North 6.9 mph - N/A   Clear
7:54 PM 69.1 °F 39.9 °F 35% 30.15 in 10.0 mi North 3.5 mph - N/A   Clear
8:54 PM 63.0 °F 41.0 °F 45% 30.17 in 10.0 mi North 5.8 mph - N/A   Clear
9:54 PM 63.0 °F 35.1 °F 35% 30.18 in 10.0 mi Calm Calm - N/A   Clear
10:54 PM 53.1 °F 42.1 °F 66% 30.20 in 10.0 mi Calm Calm - N/A   Clear
11:54 PM 50.0 °F 43.0 °F 77% 30.20 in 10.0 mi Variable 3.5 mph - N/A   Clear